• In Russia
  • List of Countries
  • For 7 days
  • Water Temperature
  • Satellite Maps
  • Weather Map
  • Weather Widgets
  • user-avatar
    Login

    Hourly Weather Vratsa

    Today, 21 November, Wednesday

    Time Temperature Precipitation Wind Pressure Humidity
    00:00 +1°C° 0.4 mm 2 mps 707 mmHg 97%
    01:00 +1°C° 0.4 mm 2 mps 707 mmHg 97%
    02:00 +1°C° 0 mm 2 mps 707 mmHg 98%
    03:00 +1°C° 0.3 mm 2 mps 706 mmHg 98%
    04:00 +1°C° 0.3 mm 2 mps 706 mmHg 98%
    05:00 +1°C° 0.3 mm 2 mps 706 mmHg 98%
    06:00 +1°C° 0.4 mm 2 mps 705 mmHg 98%
    07:00 +2°C° 0.4 mm 2 mps 705 mmHg 98%
    08:00 +1°C° 0 mm 2 mps 705 mmHg 97%
    09:00 +1°C° 0.5 mm 2 mps 705 mmHg 97%
    10:00 +2°C° 0.5 mm 2 mps 705 mmHg 97%
    11:00 +2°C° 0.5 mm 2 mps 705 mmHg 96%
    12:00 +2°C° 1 mm 2 mps 705 mmHg 96%
    13:00 +2°C° 1 mm 2 mps 705 mmHg 96%
    14:00 +1°C° 1 mm 2 mps 706 mmHg 96%
    15:00 +1°C° 1.1 mm 2 mps 706 mmHg 96%
    16:00 +1°C° 1.1 mm 2 mps 706 mmHg 96%
    17:00 +1°C° 1.1 mm 2 mps 706 mmHg 96%
    18:00 +2°C° 0.6 mm 1 mps 707 mmHg 96%
    19:00 +2°C° 0.6 mm 1 mps 707 mmHg 96%
    20:00 +2°C° 0.6 mm 1 mps 707 mmHg 96%
    21:00 +2°C° 0.2 mm 1 mps 708 mmHg 96%
    22:00 +2°C° 0.2 mm 1 mps 708 mmHg 96%
    23:00 +2°C° 0.2 mm 1 mps 709 mmHg 96%

    Tomorrow, 22 November, Thursday

    Time Temperature Precipitation Wind Pressure Humidity
    00:00 +2°C° 0.1 mm 1 mps 709 mmHg 96%
    01:00 +2°C° 0.1 mm 1 mps 709 mmHg 96%
    02:00 +2°C° 0.1 mm 1 mps 709 mmHg 95%
    03:00 +2°C° 0.2 mm 1 mps 710 mmHg 96%
    04:00 +2°C° 0.2 mm 1 mps 710 mmHg 96%
    05:00 +1°C° 0.2 mm 1 mps 710 mmHg 96%
    06:00 +1°C° 0.2 mm 1 mps 710 mmHg 95%
    07:00 +2°C° 0.2 mm 1 mps 710 mmHg 95%
    08:00 +2°C° 0.2 mm 1 mps 711 mmHg 95%
    09:00 +2°C° 0.2 mm 1 mps 711 mmHg 94%
    10:00 +2°C° 0.2 mm 1 mps 711 mmHg 92%
    11:00 +2°C° 0.2 mm 2 mps 712 mmHg 91%
    12:00 +2°C° 0.2 mm 2 mps 712 mmHg 90%
    13:00 +2°C° 0.2 mm 2 mps 712 mmHg 89%
    14:00 +2°C° 0.2 mm 2 mps 711 mmHg 89%
    15:00 +2°C° 0.2 mm 2 mps 712 mmHg 90%
    16:00 +3°C° 0.2 mm 1 mps 712 mmHg 91%
    17:00 +2°C° 0.2 mm 1 mps 712 mmHg 93%
    18:00 +2°C° 0.1 mm 1 mps 712 mmHg 93%
    19:00 +2°C° 0.1 mm 1 mps 713 mmHg 93%
    20:00 +2°C° 0.1 mm 1 mps 713 mmHg 94%
    21:00 +2°C° 0 mm 1 mps 713 mmHg 94%
    22:00 +2°C° 0 mm 1 mps 713 mmHg 94%
    23:00 +2°C° 0 mm 1 mps 713 mmHg 94%

    Day after tomorrow, 23 November, Friday

    Time Temperature Precipitation Wind Pressure Humidity
    00:00 +1°C° 0 mm 1 mps 713 mmHg 94%
    01:00 +1°C° 0 mm 1 mps 714 mmHg 94%
    02:00 +1°C° 0 mm 1 mps 714 mmHg 94%
    03:00 +1°C° 0 mm 1 mps 714 mmHg 94%
    04:00 0°C° 0 mm 0 mps 714 mmHg 94%
    05:00 0°C° 0 mm 0 mps 714 mmHg 94%
    06:00 0°C° 0 mm 0 mps 714 mmHg 94%
    07:00 0°C° 0 mm 0 mps 714 mmHg 93%
    08:00 0°C° 0 mm 0 mps 715 mmHg 93%
    09:00 +2°C° 0 mm 1 mps 715 mmHg 90%
    10:00 +3°C° 0 mm 1 mps 715 mmHg 86%
    11:00 +4°C° 0 mm 1 mps 716 mmHg 83%
    12:00 +5°C° 0 mm 1 mps 715 mmHg 81%
    13:00 +5°C° 0 mm 1 mps 715 mmHg 80%
    14:00 +6°C° 0 mm 1 mps 715 mmHg 78%
    15:00 +5°C° 0 mm 1 mps 715 mmHg 81%
    16:00 +4°C° 0 mm 1 mps 715 mmHg 83%
    17:00 +4°C° 0 mm 1 mps 715 mmHg 86%
    18:00 +3°C° 0 mm 1 mps 715 mmHg 86%
    19:00 +3°C° 0 mm 1 mps 715 mmHg 86%
    20:00 +3°C° 0 mm 1 mps 716 mmHg 86%
    21:00 +2°C° 0 mm 1 mps 716 mmHg 86%
    22:00 +2°C° 0 mm 1 mps 716 mmHg 86%
    23:00 +2°C° 0 mm 1 mps 716 mmHg 86%

    24 November, Saturday

    Time Temperature Precipitation Wind Pressure Humidity
    00:00 +2°C° 0 mm 1 mps 715 mmHg 86%
    01:00 +2°C° 0 mm 1 mps 715 mmHg 87%
    02:00 +2°C° 0 mm 1 mps 715 mmHg 87%
    03:00 +1°C° 0 mm 1 mps 715 mmHg 87%
    04:00 +1°C° 0 mm 1 mps 714 mmHg 87%
    05:00 +1°C° 0 mm 1 mps 714 mmHg 87%
    06:00 +1°C° 0 mm 1 mps 714 mmHg 87%
    07:00 +1°C° 0 mm 1 mps 714 mmHg 86%
    08:00 +1°C° 0 mm 1 mps 714 mmHg 86%
    09:00 +2°C° 0 mm 1 mps 713 mmHg 82%
    10:00 +4°C° 0 mm 1 mps 713 mmHg 77%
    11:00 +6°C° 0 mm 1 mps 713 mmHg 73%
    12:00 +6°C° 0 mm 1 mps 713 mmHg 71%
    13:00 +7°C° 0 mm 1 mps 712 mmHg 69%
    14:00 +8°C° 0 mm 1 mps 712 mmHg 68%
    15:00 +7°C° 0 mm 1 mps 712 mmHg 71%
    16:00 +6°C° 0 mm 1 mps 711 mmHg 74%
    17:00 +5°C° 0 mm 1 mps 711 mmHg 77%
    18:00 +5°C° 0 mm 1 mps 711 mmHg 77%
    19:00 +5°C° 0 mm 1 mps 711 mmHg 77%
    20:00 +5°C° 0 mm 1 mps 711 mmHg 78%
    21:00 +4°C° 0 mm 1 mps 711 mmHg 78%
    22:00 +4°C° 0 mm 1 mps 711 mmHg 78%
    23:00 +4°C° 0 mm 1 mps 711 mmHg 79%

    25 November, Sunday

    Time Temperature Precipitation Wind Pressure Humidity
    00:00 +4°C° 0 mm 1 mps 710 mmHg 79%
    01:00 +4°C° 0 mm 1 mps 710 mmHg 80%
    02:00 +4°C° 0 mm 1 mps 710 mmHg 81%
    03:00 +4°C° 0 mm 1 mps 709 mmHg 81%
    04:00 +4°C° 0 mm 1 mps 709 mmHg 81%
    05:00 +3°C° 0 mm 1 mps 708 mmHg 82%
    06:00 +3°C° 0 mm 1 mps 708 mmHg 82%
    07:00 +3°C° 0 mm 1 mps 708 mmHg 82%
    08:00 +3°C° 0 mm 1 mps 708 mmHg 82%
    09:00 +5°C° 0 mm 1 mps 708 mmHg 77%
    10:00 +7°C° 0 mm 1 mps 708 mmHg 73%
    11:00 +9°C° 0 mm 1 mps 708 mmHg 68%
    12:00 +10°C° 0 mm 1 mps 708 mmHg 66%
    13:00 +11°C° 0 mm 1 mps 707 mmHg 64%
    14:00 +11°C° 0 mm 1 mps 707 mmHg 62%
    15:00 +10°C° 0 mm 1 mps 706 mmHg 67%
    16:00 +9°C° 0 mm 1 mps 706 mmHg 71%
    17:00 +8°C° 0 mm 1 mps 706 mmHg 76%
    18:00 +8°C° 0 mm 1 mps 706 mmHg 77%
    19:00 +7°C° 0 mm 1 mps 706 mmHg 78%
    20:00 +7°C° 0 mm 1 mps 705 mmHg 79%
    21:00 +7°C° 0 mm 1 mps 705 mmHg 80%
    22:00 +7°C° 0 mm 1 mps 705 mmHg 80%
    23:00 +7°C° 0 mm 1 mps 705 mmHg 80%

    26 November, Monday

    Time Temperature Precipitation Wind Pressure Humidity
    00:00 +7°C° 0.2 mm 1 mps 704 mmHg 82%
    01:00 +7°C° 0.2 mm 1 mps 704 mmHg 83%
    02:00 +7°C° 0.2 mm 1 mps 703 mmHg 84%
    03:00 +7°C° 0.5 mm 1 mps 703 mmHg 86%
    04:00 +6°C° 0.5 mm 1 mps 702 mmHg 87%
    05:00 +6°C° 0.5 mm 1 mps 702 mmHg 89%
    06:00 +6°C° 1.3 mm 1 mps 701 mmHg 90%
    07:00 +6°C° 1.3 mm 1 mps 701 mmHg 91%
    08:00 +6°C° 1.3 mm 1 mps 701 mmHg 92%
    09:00 +6°C° 0.5 mm 1 mps 701 mmHg 91%
    10:00 +6°C° 0.5 mm 1 mps 701 mmHg 90%
    11:00 +7°C° 0.5 mm 1 mps 701 mmHg 89%
    12:00 +7°C° 1.2 mm 1 mps 700 mmHg 90%
    13:00 +6°C° 1.2 mm 1 mps 700 mmHg 90%
    14:00 +6°C° 1.2 mm 1 mps 700 mmHg 91%
    15:00 +6°C° 0.4 mm 1 mps 700 mmHg 92%
    16:00 +6°C° 0.4 mm 1 mps 701 mmHg 93%
    17:00 +5°C° 0.4 mm 1 mps 701 mmHg 93%
    18:00 +5°C° 0 mm 1 mps 701 mmHg 93%
    19:00 +5°C° 0 mm 1 mps 702 mmHg 93%
    20:00 +5°C° 0 mm 1 mps 702 mmHg 93%
    21:00 +5°C° 0 mm 1 mps 702 mmHg 94%
    22:00 +5°C° 0 mm 1 mps 703 mmHg 94%
    23:00 +3°C° 0 mm 0 mps 703 mmHg 95%
    Show more